Total_Precipitation_Accumulation
0.00 0.00 0.00 0.00 0.00 0.00 0.00 0.00 0.00 0.00 0.00 0.04 0.00 0.00 0.00 0.07 0.60 0.80 0.72 1.46 1.83 1.08 0.95 0.78 0.65 0.17 0.07 0.07 0.01 0.00 0.00 0.00 0.00 0.00 0.00 0.00 0.00 0.00 0.00 0.00 0.01 0.00 0.01 0.00 0.00 0.00 0.01 0.01 0.01
0.00 0.00 0.00 0.00 0.00 0.00 0.00 0.00 0.00 0.00 0.00 0.11 0.02 0.00 0.00 0.03 0.49 0.72 0.47 0.82 1.33 0.85 1.17 0.88 1.03 1.07 0.42 0.18 0.03 0.01 0.00 0.00 0.00 0.00 0.00 0.00 0.00 0.00 0.00 0.00 0.01 0.00 0.00 0.00 0.00 0.00 0.00 0.00 0.00
0.00 0.00 0.00 0.00 0.00 0.00 0.00 0.00 0.00 0.00 0.00 0.00 0.00 0.01 0.03 0.10 0.07 0.04 0.03 0.08 0.74 0.79 0.53 0.87 0.92 0.80 0.63 0.28 0.15 0.19 0.02 0.00 0.00 0.00 0.00 0.00 0.00 0.00 0.00 0.00 0.00 0.00 0.00 0.01 0.00 0.00 0.00 0.00 0.00
0.00 0.00 0.00 0.00 0.00 0.00 0.00 0.00 0.00 0.00 0.06 0.11 0.06 0.40 0.15 0.20 0.12 0.06 0.11 0.12 0.87 0.75 1.02 1.77 1.31 0.91 0.52 0.35 0.38 0.32 0.11 0.00 0.00 0.00 0.00 0.00 0.00 0.00 0.00 0.00 0.00 0.01 0.01 0.01 0.00 0.00 0.00 0.00 0.00
0.00 0.00 0.00 0.00 0.00 0.00 0.00 0.00 0.01 0.02 0.10 0.41 0.17 0.52 0.54 0.12 0.09 0.13 0.26 0.52 1.12 1.13 1.23 2.19 3.21 2.66 2.19 1.25 0.74 0.23 0.02 0.00 0.00 0.00 0.00 0.00 0.00 0.00 0.00 0.01 0.01 0.01 0.01 0.00 0.00 0.00 0.00 0.00 0.00
0.00 0.00 0.00 0.00 0.00 0.00 0.00 0.00 0.00 0.00 0.03 0.13 0.28 0.51 0.47 0.04 0.16 0.22 0.39 0.92 1.66 2.51 2.69 3.69 5.15 4.27 3.28 2.65 1.70 0.89 0.12 0.01 0.00 0.00 0.01 0.00 0.00 0.00 0.00 0.00 0.00 0.00 0.00 0.00 0.00 0.00 0.00 0.00 0.00
0.00 0.00 0.00 0.00 0.00 0.00 0.00 0.00 0.00 0.00 0.01 0.12 0.21 0.19 0.80 0.44 0.41 0.53 0.37 0.76 0.91 1.88 3.22 4.46 5.81 6.69 6.12 3.68 3.12 2.26 0.73 0.17 0.03 0.01 0.01 0.00 0.00 0.00 0.00 0.00 0.00 0.00 0.00 0.00 0.00 0.00 0.00 0.00 0.00
0.00 0.00 0.00 0.00 0.00 0.00 0.00 0.01 0.01 0.01 0.03 0.04 0.09 0.71 1.13 0.78 0.32 0.27 0.45 0.81 0.81 0.67 1.17 1.06 1.50 5.55 10.77 7.44 4.62 3.16 1.60 0.90 0.16 0.02 0.01 0.00 0.00 0.00 0.00 0.00 0.00 0.00 0.00 0.00 0.00 0.00 0.00 0.00 0.00
0.00 0.00 0.00 0.00 0.00 0.00 0.00 0.00 0.07 0.06 0.00 0.02 0.20 0.90 0.30 0.08 0.11 0.23 0.27 0.57 0.86 0.64 0.75 0.51 0.38 1.68 5.03 9.01 6.00 4.24 2.45 1.16 0.51 0.07 0.01 0.00 0.00 0.00 0.00 0.00 0.00 0.00 0.00 0.00 0.00 0.00 0.00 0.00 0.00
0.00 0.00 0.00 0.00 0.00 0.00 0.00 0.00 0.06 0.05 0.02 0.13 0.45 0.69 0.08 0.04 0.08 0.10 0.13 0.26 0.30 0.48 0.70 0.54 0.36 0.72 1.63 4.06 3.78 3.88 2.87 1.32 0.83 0.16 0.02 0.00 0.00 0.00 0.00 0.00 0.00 0.00 0.00 0.00 0.00 0.00 0.00 0.00 0.00
0.00 0.00 0.00 0.00 0.00 0.00 0.00 0.00 0.00 0.00 0.03 0.35 0.16 0.22 0.04 0.08 0.09 0.12 0.13 0.20 0.38 0.63 0.63 0.50 0.42 0.60 0.88 1.95 1.50 1.91 2.10 1.14 1.03 0.48 0.05 0.02 0.01 0.00 0.00 0.00 0.00 0.00 0.00 0.00 0.00 0.00 0.00 0.00 0.00
0.00 0.00 0.00 0.00 0.00 0.00 0.00 0.00 0.00 0.00 0.04 0.11 0.15 0.09 0.05 0.04 0.11 0.12 0.13 0.21 0.25 0.42 0.48 0.41 0.29 0.50 0.79 0.80 0.91 1.10 1.01 1.23 0.83 0.73 0.17 0.05 0.01 0.00 0.00 0.00 0.00 0.00 0.00 0.00 0.00 0.00 0.00 0.00 0.00
0.00 0.00 0.00 0.00 0.00 0.00 0.00 0.00 0.00 0.00 0.05 0.09 0.19 0.12 0.08 0.01 0.05 0.07 0.11 0.22 0.26 0.37 0.47 0.46 0.46 0.50 0.43 0.23 0.38 1.03 0.70 0.92 0.64 0.54 0.22 0.07 0.00 0.00 0.00 0.00 0.00 0.00 0.00 0.00 0.00 0.00 0.00 0.00 0.00
0.00 0.00 0.00 0.00 0.00 0.00 0.00 0.00 0.00 0.02 0.04 0.23 0.80 0.22 0.05 0.01 0.02 0.04 0.08 0.24 0.61 0.52 0.77 0.49 0.55 0.52 0.43 0.29 0.32 0.79 0.71 0.59 0.57 0.25 0.12 0.03 0.01 0.01 0.00 0.00 0.00 0.00 0.00 0.00 0.00 0.00 0.00 0.00 0.00
0.00 0.00 0.00 0.04 0.02 0.00 0.00 0.00 0.02 0.09 0.17 0.33 0.27 0.11 0.01 0.01 0.07 0.06 0.13 0.15 0.26 0.51 0.59 0.44 0.42 0.39 0.44 0.34 0.47 0.63 0.70 0.43 0.34 0.14 0.05 0.01 0.01 0.01 0.01 0.00 0.00 0.00 0.00 0.00 0.00 0.00 0.00 0.00 0.00
0.00 0.00 0.00 0.05 0.00 0.00 0.00 0.09 0.24 0.29 0.10 0.26 0.35 0.07 0.02 0.00 0.02 0.03 0.04 0.05 0.14 0.18 0.40 0.37 0.26 0.23 0.27 0.20 0.40 0.53 0.55 0.38 0.26 0.13 0.03 0.01 0.02 0.02 0.01 0.01 0.01 0.00 0.00 0.00 0.00 0.00 0.00 0.00 0.00
0.00 0.00 0.00 0.00 0.00 0.00 0.00 0.00 0.02 0.14 0.25 0.35 0.26 0.03 0.00 0.00 0.01 0.02 0.02 0.01 0.05 0.16 0.25 0.26 0.23 0.21 0.30 0.20 0.42 0.40 0.31 0.29 0.24 0.13 0.03 0.03 0.03 0.02 0.02 0.02 0.00 0.00 0.00 0.00 0.00 0.00 0.00 0.00 0.00
0.00 0.00 0.00 0.00 0.00 0.00 0.00 0.00 0.00 0.02 0.06 0.05 0.05 0.02 0.01 0.00 0.00 0.00 0.00 0.01 0.01 0.02 0.09 0.12 0.27 0.24 0.40 0.20 0.30 0.26 0.30 0.23 0.21 0.12 0.06 0.05 0.03 0.03 0.03 0.01 0.00 0.00 0.00 0.00 0.00 0.00 0.00 0.00 0.00
0.00 0.00 0.00 0.00 0.00 0.00 0.00 0.00 0.00 0.00 0.01 0.02 0.03 0.03 0.01 0.00 0.00 0.00 0.00 0.01 0.00 0.01 0.01 0.02 0.09 0.16 0.31 0.16 0.21 0.17 0.19 0.17 0.14 0.10 0.06 0.07 0.04 0.03 0.04 0.01 0.00 0.00 0.00 0.00 0.00 0.00 0.00 0.00 0.00
0.00 0.00 0.00 0.00 0.00 0.00 0.00 0.00 0.00 0.00 0.00 0.00 0.01 0.01 0.00 0.00 0.00 0.00 0.00 0.01 0.01 0.01 0.01 0.00 0.01 0.04 0.09 0.09 0.12 0.09 0.05 0.09 0.07 0.08 0.06 0.05 0.02 0.03 0.05 0.01 0.01 0.00 0.00 0.00 0.00 0.00 0.00 0.00 0.00
0.00 0.00 0.00 0.00 0.00 0.00 0.00 0.00 0.00 0.00 0.00 0.00 0.00 0.00 0.00 0.00 0.00 0.00 0.00 0.00 0.00 0.01 0.01 0.00 0.00 0.00 0.01 0.04 0.05 0.10 0.04 0.04 0.04 0.06 0.06 0.05 0.06 0.07 0.06 0.05 0.01 0.02 0.01 0.00 0.00 0.00 0.00 0.00 0.00
0.00 0.00 0.00 0.00 0.00 0.02 0.00 0.00 0.00 0.00 0.00 0.00 0.00 0.00 0.00 0.00 0.00 0.00 0.00 0.00 0.00 0.00 0.00 0.00 0.00 0.00 0.00 0.00 0.01 0.03 0.01 0.00 0.00 0.00 0.01 0.02 0.02 0.02 0.01 0.03 0.01 0.01 0.01 0.01 0.01 0.02 0.02 0.02 0.02
0.00 0.00 0.00 0.00 0.00 0.00 0.01 0.00 0.00 0.00 0.00 0.00 0.00 0.00 0.00 0.00 0.00 0.00 0.00 0.00 0.00 0.00 0.00 0.00 0.00 0.00 0.00 0.00 0.00 0.01 0.00 0.00 0.00 0.00 0.00 0.01 0.02 0.04 0.05 0.04 0.03 0.02 0.03 0.04 0.06 0.05 0.08 0.09 0.07
0.00 0.00 0.00 0.00 0.00 0.00 0.00 0.00 0.00 0.00 0.00 0.00 0.00 0.00 0.00 0.00 0.00 0.00 0.00 0.00 0.00 0.00 0.00 0.00 0.00 0.00 0.00 0.00 0.00 0.03 0.06 0.00 0.00 0.07 0.08 0.01 0.06 0.07 0.08 0.07 0.06 0.04 0.04 0.10 0.15 0.17 0.14 0.08 0.06
0.00 0.00 0.00 0.02 0.00 0.00 0.01 0.00 0.00 0.00 0.00 0.00 0.00 0.00 0.00 0.00 0.00 0.00 0.00 0.00 0.00 0.00 0.00 0.00 0.00 0.00 0.00 0.00 0.08 0.03 0.04 0.02 0.00 0.05 0.04 0.04 0.13 0.17 0.09 0.08 0.07 0.04 0.06 0.09 0.13 0.12 0.11 0.13 0.20
0.00 0.00 0.02 0.05 0.01 0.02 0.03 0.00 0.00 0.00 0.00 0.00 0.00 0.00 0.00 0.00 0.00 0.00 0.01 0.01 0.01 0.00 0.00 0.00 0.00 0.00 0.00 0.00 0.02 0.06 0.00 0.02 0.08 0.02 0.07 0.06 0.06 0.12 0.27 0.11 0.08 0.14 0.12 0.19 0.23 0.23 0.26 0.34 0.48
0.00 0.00 0.00 0.00 0.00 0.01 0.00 0.00 0.00 0.00 0.00 0.00 0.00 0.00 0.00 0.00 0.00 0.00 0.01 0.01 0.02 0.02 0.01 0.00 0.00 0.00 0.00 0.00 0.00 0.02 0.05 0.02 0.07 0.07 0.05 0.20 0.18 0.11 0.15 0.20 0.21 0.27 0.27 0.30 0.37 0.47 0.59 0.62 0.61
0.00 0.00 0.00 0.00 0.00 0.01 0.00 0.00 0.00 0.00 0.00 0.00 0.00 0.00 0.00 0.00 0.00 0.00 0.00 0.00 0.03 0.04 0.08 0.09 0.05 0.03 0.01 0.00 0.00 0.00 0.04 0.08 0.07 0.15 0.32 0.47 0.32 0.27 0.32 0.45 0.54 0.57 0.61 0.65 0.69 0.76 0.78 0.70 0.64
0.00 0.00 0.00 0.00 0.00 0.00 0.00 0.00 0.00 0.00 0.00 0.00 0.00 0.00 0.00 0.00 0.00 0.00 0.00 0.00 0.01 0.05 0.10 0.16 0.17 0.12 0.12 0.10 0.06 0.02 0.02 0.11 0.25 0.30 0.68 0.53 0.52 0.73 0.98 1.14 1.10 0.97 0.92 0.95 1.02 0.98 0.91 0.76 0.55
0.00 0.00 0.00 0.00 0.00 0.00 0.00 0.00 0.00 0.00 0.00 0.00 0.00 0.00 0.00 0.00 0.00 0.00 0.00 0.01 0.03 0.06 0.08 0.06 0.22 0.42 0.26 0.21 0.21 0.16 0.29 0.51 0.80 0.78 0.96 1.20 1.41 1.31 1.31 1.11 0.96 0.89 0.81 0.74 0.77 0.74 0.62 0.46 0.25